STARLINK-36799

Last updated on Fri Mar 27 2026 00:02:06 GMT+0000 (Coordinated Universal Time)

1 67958U 26037AC 26085.50002314 .00107360 00000+0 18154-2 0 9996 2 67958 43.0002 96.6151 0001402 276.5435 23.3336 15.50507600 5906
UTC large
Height (km)
Speed (km/s)
/
Latitude / Longitude
Inclination (degrees)
Orbital Period (minutes)
Azimuth
Elevation
Range (km)
Doppler Factor

Next 0 passes for location: London (51.5072 / 0.1276)

Sorry there are no passes over London.